Change the Weather History Date:

Monday, October 14, 2013

  Actual Average Record
Temperature  
Mean Temperature 50 °F -  
Max Temperature 61 °F 64 °F 79 °F (1990)
Min Temperature 39 °F 44 °F 29 °F (1958)
Degree Days  
Heating Degree Days 16    
Moisture  
Dew Point 45 °F    
Average Humidity 83    
Maximum Humidity 97    
Minimum Humidity 64    
Precipitation  
Precipitation 0.00 in - - ()
Sea Level Pressure  
Sea Level Pressure 30.33 in    
Wind  
Wind Speed 4 mph (NNE)    
Max Wind Speed 7 mph    
Max Gust Speed -    
Visibility 10 miles    
Events      
Averages and records for this station are not official NWS values.
T = Trace of Precipitation, MM = Missing Value Source: NWS Daily Summary

Daily Weather History Graph

Daily Weather History Graph

Search for Another Location

Airport or City:

Trip Planner

Search our weather history database for the weather conditions in past years. The results will help you decide how hot, cold, wet, or windy it might be!

Date:

Astronomy

Oct. 14, 2013 Rise Set
Actual Time 6:59 AM EDT 6:08 PM EDT
Civil Twilight 6:31 AM EDT 6:36 PM EDT
Nautical Twilight 5:59 AM EDT 7:08 PM EDT
Astronomical Twilight 5:27 AM EDT 7:40 PM EDT
Moon 3:38 PM EDT (10/14) 2:09 AM EDT (10/14)
Length of Visible Light 12h 05m
Length of Day
11h 09m
Waxing Gibbous, 79% of the Moon is Illuminated
Oct 14
Waxing Gibbous
Oct 18
Full
Oct 26
Last Quarter
Nov 3
New
Nov 10
First Quarter

Hourly Weather History & Observations

Time (EDT) Temp. Windchill Dew Point Humidity Pressure Visibility Wind Dir Wind Speed Gust Speed Precip Events Conditions
12:56 AM 44.1 °F 42.5 °F 42.1 °F 93% 30.39 in 10.0 mi North 3.5 mph - N/A   Clear
1:56 AM 44.1 °F 40.8 °F 41.0 °F 89% 30.38 in 10.0 mi North 5.8 mph - N/A   Clear
2:56 AM 43.0 °F 39.5 °F 41.0 °F 93% 30.36 in 10.0 mi North 5.8 mph - N/A   Clear
3:56 AM 41.0 °F 38.0 °F 39.9 °F 96% 30.36 in 10.0 mi North 4.6 mph - N/A   Clear
4:56 AM 42.1 °F 38.4 °F 39.9 °F 92% 30.36 in 10.0 mi North 5.8 mph - N/A   Clear
5:56 AM 42.1 °F 40.2 °F 39.9 °F 92% 30.37 in 10.0 mi North 3.5 mph - N/A   Clear
6:56 AM 39.9 °F 37.8 °F 39.0 °F 97% 30.37 in 9.0 mi North 3.5 mph - N/A   Clear
7:56 AM 43.0 °F 39.5 °F 41.0 °F 93% 30.37 in 9.0 mi North 5.8 mph - N/A   Clear
8:56 AM 48.9 °F - 44.1 °F 83% 30.38 in 10.0 mi NNW 5.8 mph - N/A   Clear
9:56 AM 54.0 °F - 46.0 °F 75% 30.38 in 10.0 mi NNE 5.8 mph - N/A   Clear
10:56 AM 57.9 °F - 46.0 °F 65% 30.36 in 10.0 mi Calm Calm - N/A   Partly Cloudy
11:56 AM 57.9 °F - 48.0 °F 70% 30.34 in 10.0 mi South 5.8 mph - N/A   Clear
12:56 PM 59.0 °F - 48.0 °F 67% 30.31 in 10.0 mi South 5.8 mph - N/A   Clear
1:56 PM 60.1 °F - 48.0 °F 64% 30.30 in 10.0 mi South 6.9 mph - N/A   Clear
2:56 PM 60.1 °F - 48.9 °F 67% 30.29 in 10.0 mi SSE 6.9 mph - N/A   Clear
3:56 PM 59.0 °F - 46.9 °F 64% 30.27 in 10.0 mi SSE 5.8 mph - N/A   Clear
4:56 PM 59.0 °F - 46.9 °F 64% 30.27 in 10.0 mi SSE 5.8 mph - N/A   Clear
5:56 PM 55.9 °F - 48.9 °F 77% 30.28 in 10.0 mi SSE 4.6 mph - N/A   Clear
6:56 PM 52.0 °F - 48.0 °F 86% 30.29 in 10.0 mi Calm Calm - N/A   Clear
7:56 PM 50.0 °F - 46.9 °F 89% 30.29 in 10.0 mi Calm Calm - N/A   Clear
8:56 PM 50.0 °F - 48.0 °F 93% 30.29 in 10.0 mi NE 3.5 mph - N/A   Clear
9:56 PM 48.0 °F - 46.0 °F 93% 30.29 in 10.0 mi Calm Calm - N/A   Clear
10:56 PM 48.0 °F - 46.0 °F 93% 30.28 in 10.0 mi NNE 3.5 mph - N/A   Clear
11:56 PM 45.0 °F 42.6 °F 43.0 °F 93% 30.27 in 10.0 mi North 4.6 mph - N/A   Clear